{"data":{"norad_id":60997,"epoch":"2026-09-21T13:02:20.740704Z","epoch_age_seconds":101855,"freshness":"FRESH","line1":"1 60997U 24158H   26264.54329561 -.00003320  00000+0 -22578-4 0  9993","line2":"2 60997  53.1595  13.6136 0000830  59.1314 300.9786 15.69693795118716","mean_motion":15.69693795,"eccentricity":8.3e-5,"inclination_deg":53.1595,"raan_deg":13.6136,"arg_perigee_deg":59.1314,"mean_anomaly_deg":300.9786,"bstar":-2.2578e-5,"rev_number":11871,"period_min":91.737637275938,"perigee_km":359.21387678554,"apogee_km":360.33236986602,"semimajor_km":6737.9101233258,"source":"CELESTRAK","updated_at":"2026-09-22T09:00:49.295884Z"}}